Weather History for Fes-Sais, Morocco

Change the Weather History Date:

Tuesday, October 16, 2012

  Actual Average Record
Temperature  
Mean Temperature 63 °F -  
Max Temperature 80 °F 70 °F 86 °F (1998)
Min Temperature 46 °F 49 °F 46 °F (1996)
Degree Days  
Heating Degree Days 2    
Growing Degree Days 13 (Base 50)    
Moisture  
Dew Point 43 °F    
Average Humidity 48    
Maximum Humidity 81    
Minimum Humidity 15    
Precipitation  
Precipitation 0.00 in 0.10 in - ()
Sea Level Pressure  
Sea Level Pressure 29.98 in    
Wind  
Wind Speed 6 mph ()    
Max Wind Speed 10 mph    
Max Gust Speed -    
Visibility 6.0 miles    
Events      
Averages and records for this station are not official NWS values.
T = Trace of Precipitation, MM = Missing Value Source: Averaged Metar Reports

Daily Weather History Graph

Daily Weather History Graph

Search for Another Location

Airport:

Trip Planner

Search our weather history database for the weather conditions in past years. The results will help you decide how hot, cold, wet, or windy it might be!

Date:

Astronomy

Oct. 16, 2012 Rise Set
Actual Time 6:25 AM WET 5:44 PM WET
Civil Twilight 6:00 AM WET 6:09 PM WET
Nautical Twilight 5:31 AM WET 6:38 PM WET
Astronomical Twilight 5:02 AM WET 7:07 PM WET
Moon 7:26 AM WET (10/16) 6:23 PM WET (10/16)
Length of Visible Light 12h 08m
Length of Day
11h 18m
New Moon, 1% of the Moon is Illuminated
Oct 16
New Moon
Oct 22
First Quarter
Oct 29
Full
Nov 7
Last Quarter
Nov 13
New

Hourly Weather History & Observations

Time (WET) Temp. Windchill Dew Point Humidity Pressure Visibility Wind Dir Wind Speed Gust Speed Precip Events Conditions
12:00 AM 48 °F - 41 °F 69% 30.09 in 6 mi SSE 4.6 mph - -  
12:00 AM 48.2 °F - 41.0 °F 76% 30.06 in - SSE 4.6 mph - N/A   Clear
3:00 AM 46 °F - 40 °F 74% 30.04 in 6 mi SE 6.9 mph - -  
3:00 AM 46.4 °F 42.9 °F 41.0 °F 81% 30.01 in - SE 6.9 mph - N/A   Clear
5:00 AM 51.8 °F - 44.6 °F 76% 29.98 in - East 6.9 mph - N/A   Clear
6:00 AM 51 °F - 44 °F 69% 29.99 in 6 mi ESE 9.2 mph - -  
6:00 AM 51.8 °F - 44.6 °F 76% 29.98 in - ESE 9.2 mph - N/A   Clear
7:00 AM 51.8 °F - 44.6 °F 76% 30.01 in - ENE 6.9 mph - N/A   Clear
8:00 AM 59.0 °F - 46.4 °F 63% 30.01 in - East 6.9 mph - N/A   Clear
9:00 AM 62 °F - 47 °F 49% 29.99 in 6 mi East 6.9 mph - -  
9:00 AM 62.6 °F - 46.4 °F 55% 30.04 in - East 6.9 mph - N/A   Clear
10:00 AM 64.4 °F - 44.6 °F 49% 30.04 in - East 10.4 mph - N/A   Clear
11:00 AM 68.0 °F - 42.8 °F 40% 30.04 in - ENE 9.2 mph - N/A   Clear
12:00 PM 74 °F - 45 °F 25% 29.93 in 6 mi ENE 6.9 mph - -  
12:00 PM 73.4 °F - 44.6 °F 36% 30.01 in - ENE 6.9 mph - N/A   Clear
1:00 PM 77.0 °F - 41.0 °F 28% 29.98 in - SE 6.9 mph - N/A   Clear
2:00 PM 80.6 °F - 42.8 °F 26% 29.98 in - NE 6.9 mph - N/A   Clear
3:00 PM 80 °F - 41 °F 15% 29.86 in 6 mi North 4.6 mph - -  
3:00 PM 80.6 °F - 42.8 °F 26% 29.95 in - North 4.6 mph - N/A   Clear
4:00 PM 80.6 °F - 42.8 °F 26% 29.95 in - NNE 4.6 mph - N/A   Clear
5:00 PM 80.6 °F - 41.0 °F 24% 29.95 in - NE 4.6 mph - N/A   Clear
6:00 PM 80 °F - 49 °F 23% 29.86 in 6 mi ENE 4.6 mph - -  
6:00 PM 80.6 °F - 48.2 °F 32% 29.95 in - ENE 4.6 mph - N/A   Clear
7:00 PM 71.6 °F - 46.4 °F 41% 29.98 in - SSE 4.6 mph - N/A   Clear
8:00 PM 62.6 °F - 41.0 °F 45% 29.98 in - South 4.6 mph - N/A   Clear
9:00 PM 61 °F - 40 °F 35% 29.95 in 6 mi SW 5.8 mph - -  
9:00 PM 60.8 °F - 41.0 °F 48% 29.98 in - SW 5.8 mph - N/A   Clear
10:00 PM 60.8 °F - 41.0 °F 48% 29.98 in - SSW 6.9 mph - N/A   Clear
11:00 PM 59.0 °F - 41.0 °F 51% 29.98 in - South 6.9 mph - N/A   Clear